Location: Stilling
(56.0622°N, 9.9882°E)
Time: 12:36:41
(UTC+00:00)

Okean 3 Rocket - Pass Details

Date: 13 July 2020
Orbit: 614 x 645 km, 82.5° (Epoch: 06 August)

Event Time Altitude Azimuth Distance (km) Brightness Sun altitude
Exits shadow 22:16:09 - 204° (SSW) 2,165 5.9 -10.9°
Reaches altitude 10° 22:16:34 10° 205° (SSW) 1,995 5.7 -10.9°
Maximum altitude 22:20:57 60° 286° (WNW) 713 4.0 -11.1°
Drops below altitude 10° 22:25:19 10° 7° (N) 1,996 7.4 -11.2°
Sets 22:27:35 0° 11° (N) 2,904 8.3 -11.3°
